Weather History for KOBE - May, 2012

Change the Weather History Date:

Wednesday, May 9, 2012

  Actual Average (KVRB) Record (KVRB)
Temperature  
Mean Temperature 75 °F 75 °F  
Max Temperature 86 °F 84 °F 93 °F (1977)
Min Temperature 64 °F 66 °F 52 °F (1992)
Degree Days  
Heating Degree Days 0 0  
Month to date heating degree days 0  
Since 1 July heating degree days 455  
Cooling Degree Days 10 10  
Month to date cooling degree days 83  
Year to date cooling degree days 541  
Growing Degree Days 25 (Base 50)    
Moisture  
Dew Point 66 °F    
Average Humidity 74    
Maximum Humidity 94    
Minimum Humidity 57    
Precipitation  
Precipitation 0.05 in 0.09 in 5.50 in (1979)
Month to date precipitation 0.72  
Year to date precipitation 12.73  
Sea Level Pressure  
Sea Level Pressure 29.87 in    
Wind  
Wind Speed 5 mph (SSW)    
Max Wind Speed 13 mph    
Max Gust Speed 20 mph    
Visibility 9 miles    
Events Rain , Thunderstorm    
T = Trace of Precipitation, MM = Missing Value Source: NWS Daily Summary

Daily Weather History Graph

Daily Weather History Graph

Search for Another Location

Airport or City:

Trip Planner

Search our weather history database for the weather conditions in past years. The results will help you decide how hot, cold, wet, or windy it might be!

Date:

Astronomy

May. 09, 2012 Rise Set
Actual Time 6:38 AM EDT 8:01 PM EDT
Civil Twilight 6:13 AM EDT 8:26 PM EDT
Nautical Twilight 5:43 AM EDT 8:56 PM EDT
Astronomical Twilight 5:12 AM EDT 9:27 PM EDT
Moon 11:57 PM EDT (5/9) 9:57 AM EDT (5/9)
Length of Visible Light 14h 13m
Length of Day
13h 23m
Waning Gibbous, 83% of the Moon is Illuminated
May 9
Waning Gibbous
May 12
Last Quarter
May 20
New
May 28
First Quarter
Jun 4
Full

Hourly Weather History & Observations

Time (EDT) Temp. Heat Index Dew Point Humidity Pressure Visibility Wind Dir Wind Speed Gust Speed Precip Events Conditions
12:35 AM 68.0 °F - 62.6 °F 83% 29.93 in 10.0 mi SSW 4.6 mph - N/A   Clear
12:55 AM 68.0 °F - 62.6 °F 83% 29.92 in 10.0 mi SSW 4.6 mph - N/A   Clear
1:15 AM 68.0 °F - 62.6 °F 83% 29.92 in 10.0 mi SW 3.5 mph - N/A   Clear
1:35 AM 68.0 °F - 62.6 °F 83% 29.92 in 7.0 mi SW 3.5 mph - N/A   Scattered Clouds
1:55 AM 68.0 °F - 62.6 °F 83% 29.91 in 10.0 mi SW 4.6 mph - N/A   Clear
2:15 AM 68.0 °F - 62.6 °F 83% 29.90 in 7.0 mi SW 3.5 mph - N/A   Clear
2:35 AM 68.0 °F - 62.6 °F 83% 29.90 in 7.0 mi Calm Calm - N/A   Clear
2:55 AM 68.0 °F - 62.6 °F 83% 29.90 in 7.0 mi SW 4.6 mph - N/A   Clear
3:15 AM 68.0 °F - 62.6 °F 83% 29.90 in 7.0 mi SW 4.6 mph - N/A   Clear
3:35 AM 66.2 °F - 62.6 °F 88% 29.90 in 7.0 mi SSW 3.5 mph - N/A   Clear
4:15 AM 66.2 °F - 62.6 °F 88% 29.90 in 7.0 mi SW 3.5 mph - N/A   Scattered Clouds
4:35 AM 66.2 °F - 62.6 °F 88% 29.89 in 7.0 mi South 3.5 mph - N/A   Clear
4:55 AM 64.4 °F - 62.6 °F 94% 29.89 in 7.0 mi SSW 3.5 mph - N/A   Clear
5:15 AM 64.4 °F - 60.8 °F 88% 29.89 in 7.0 mi Calm Calm - N/A   Clear
5:35 AM 64.4 °F - 60.8 °F 88% 29.89 in 7.0 mi Calm Calm - N/A   Clear
5:55 AM 64.4 °F - 60.8 °F 88% 29.90 in 7.0 mi Calm Calm - N/A   Clear
6:15 AM 64.4 °F - 60.8 °F 88% 29.91 in 7.0 mi WSW 3.5 mph - N/A   Clear
6:35 AM 64.4 °F - 60.8 °F 88% 29.91 in 7.0 mi Calm Calm - N/A   Clear
6:55 AM 64.4 °F - 60.8 °F 88% 29.91 in 4.0 mi Calm Calm - 0.02 in   Clear
7:15 AM 64.4 °F - 60.8 °F 88% 29.91 in 7.0 mi Calm Calm - N/A   Clear
7:35 AM 66.2 °F - 62.6 °F 88% 29.92 in 7.0 mi Calm Calm - N/A   Clear
7:55 AM 68.0 °F - 62.6 °F 83% 29.92 in 10.0 mi SW 3.5 mph - N/A   Clear
8:15 AM 68.0 °F - 64.4 °F 88% 29.92 in 7.0 mi Calm Calm - N/A   Clear
8:35 AM 69.8 °F - 64.4 °F 83% 29.93 in 7.0 mi SW 5.8 mph - N/A   Clear
9:15 AM 71.6 °F - 64.4 °F 78% 29.92 in 10.0 mi SW 3.5 mph - N/A   Overcast
9:35 AM 73.4 °F - 66.2 °F 78% 29.92 in 10.0 mi SW 3.5 mph - N/A   Overcast
9:55 AM 77.0 °F - 64.4 °F 65% 29.92 in 10.0 mi SSW 4.6 mph - N/A   Scattered Clouds
10:15 AM 77.0 °F - 64.4 °F 65% 29.92 in 10.0 mi West 3.5 mph - N/A   Scattered Clouds
10:35 AM 78.8 °F - 64.4 °F 61% 29.93 in 10.0 mi WSW 5.8 mph - N/A   Mostly Cloudy
10:55 AM 78.8 °F - 64.4 °F 61% 29.92 in 10.0 mi SW 9.2 mph - N/A   Mostly Cloudy
11:15 AM 78.8 °F - 62.6 °F 57% 29.92 in 10.0 mi West 6.9 mph - N/A   Mostly Cloudy
11:35 AM 78.8 °F - 62.6 °F 57% 29.92 in 10.0 mi WSW 6.9 mph - N/A   Mostly Cloudy
11:55 AM - - - N/A% 29.91 in - North - - 0.03 in   Unknown
12:15 PM - - - N/A% - - North - - N/A   Unknown
12:35 PM 82.4 °F 85.4 °F 68.0 °F 62% 29.90 in 10.0 mi West 6.9 mph - N/A   Scattered Clouds
12:55 PM 84.2 °F 89.6 °F 71.6 °F 66% 29.89 in 10.0 mi South 6.9 mph - N/A   Scattered Clouds
1:15 PM 82.4 °F 87.2 °F 71.6 °F 70% 29.88 in 10.0 mi South 8.1 mph - N/A   Mostly Cloudy
1:35 PM 82.4 °F 87.2 °F 71.6 °F 70% 29.88 in 10.0 mi South 6.9 mph - N/A   Mostly Cloudy
1:55 PM 82.4 °F 87.2 °F 71.6 °F 70% 29.87 in 10.0 mi SSE 5.8 mph - N/A   Mostly Cloudy
2:15 PM 77.0 °F - 68.0 °F 74% 29.88 in 10.0 mi SW 4.6 mph - N/A Rain , Thunderstorm Light Thunderstorms and Rain
2:35 PM 75.2 °F - 69.8 °F 83% 29.88 in 10.0 mi South 9.2 mph 19.6 mph N/A Rain , Thunderstorm Light Thunderstorms and Rain
2:55 PM 80.6 °F 83.2 °F 68.0 °F 65% 29.86 in 10.0 mi South 8.1 mph - N/A   Clear
3:15 PM 82.4 °F 85.4 °F 68.0 °F 62% 29.84 in 10.0 mi SSE 5.8 mph - N/A   Clear
3:35 PM 82.4 °F 85.4 °F 68.0 °F 62% 29.83 in 10.0 mi South 8.1 mph - N/A   Clear
3:55 PM 82.4 °F 85.4 °F 68.0 °F 62% 29.83 in 10.0 mi SSW 6.9 mph - N/A   Clear
4:15 PM 84.2 °F 88.4 °F 69.8 °F 62% 29.81 in 10.0 mi SSW 10.4 mph - N/A   Clear
4:35 PM 86.0 °F 91.8 °F 71.6 °F 62% 29.81 in 10.0 mi SSW 10.4 mph - N/A   Scattered Clouds
4:55 PM 86.0 °F 90.4 °F 69.8 °F 58% 29.80 in 10.0 mi South 8.1 mph - N/A   Scattered Clouds
5:15 PM 86.0 °F 90.4 °F 69.8 °F 58% 29.81 in 10.0 mi South 11.5 mph 19.6 mph N/A   Mostly Cloudy
5:35 PM 86.0 °F 90.4 °F 69.8 °F 58% 29.80 in 10.0 mi SSE 6.9 mph - N/A   Scattered Clouds
5:55 PM 86.0 °F 91.8 °F 71.6 °F 62% 29.79 in 10.0 mi South 8.1 mph - N/A   Clear
6:15 PM 86.0 °F 91.8 °F 71.6 °F 62% 29.79 in 10.0 mi SSW 10.4 mph - N/A   Clear
6:35 PM 86.0 °F 90.4 °F 69.8 °F 58% 29.79 in 10.0 mi SSW 10.4 mph - N/A   Scattered Clouds
6:55 PM 84.2 °F 88.4 °F 69.8 °F 62% 29.79 in 10.0 mi South 12.7 mph 17.3 mph N/A   Mostly Cloudy
7:15 PM 84.2 °F 88.4 °F 69.8 °F 62% 29.80 in 10.0 mi SSW 10.4 mph - N/A   Scattered Clouds
7:35 PM 82.4 °F 87.2 °F 71.6 °F 70% 29.81 in 10.0 mi SSE 8.1 mph - N/A   Mostly Cloudy
7:55 PM 80.6 °F 84.6 °F 71.6 °F 74% 29.81 in 10.0 mi SSW 3.5 mph - N/A   Scattered Clouds
8:15 PM 78.8 °F - 71.6 °F 78% 29.82 in 10.0 mi SSW 3.5 mph - N/A   Clear
8:35 PM 80.6 °F 83.2 °F 68.0 °F 65% 29.83 in 10.0 mi WSW 11.5 mph - N/A   Clear
8:55 PM 80.6 °F 83.2 °F 68.0 °F 65% 29.83 in 10.0 mi WSW 9.2 mph - N/A   Clear
9:15 PM 78.8 °F - 69.8 °F 74% 29.83 in 10.0 mi WSW 9.2 mph - N/A   Clear
9:35 PM 78.8 °F - 69.8 °F 74% 29.84 in 10.0 mi WSW 8.1 mph - N/A   Clear
9:55 PM 78.8 °F - 69.8 °F 74% 29.85 in 10.0 mi SW 6.9 mph - N/A   Mostly Cloudy
10:15 PM 78.8 °F - 69.8 °F 74% 29.85 in 10.0 mi SW 4.6 mph - N/A   Scattered Clouds
10:35 PM 77.0 °F - 69.8 °F 78% 29.85 in 10.0 mi WSW 4.6 mph - N/A   Mostly Cloudy
10:55 PM 78.8 °F - 69.8 °F 74% 29.85 in 10.0 mi WSW 5.8 mph - N/A   Mostly Cloudy
11:15 PM 78.8 °F - 69.8 °F 74% 29.84 in 10.0 mi WSW 8.1 mph - N/A   Overcast
11:35 PM 77.0 °F - 69.8 °F 78% 29.84 in 10.0 mi WSW 8.1 mph - N/A   Overcast
11:55 PM 77.0 °F - 69.8 °F 78% 29.84 in 10.0 mi WSW 6.9 mph - N/A   Scattered Clouds